Weather in Ust-Pit

Russia / Krasnoyarsk Krai     58°58′57″N   91°45′36″E
temp.,
°C
wind,
m/s
gust,
m/s
humid.,
%
clouds,
%
prec.,
mm/h
press.,
hPa
HPBL,
m
8 may, sat
sat801:00+4wsw11967 0.9 100716
04:00+3wsw249797 0.4 100894
07:00+5w3890100 0.6 1009745
10:00+7w4665100 0.2 10091358
13:00+7wsw4572100 0.6 10101066
16:00+7wnw3470100 0.8 10101044
19:00+7nnw247392 1.3 1011775
22:00+4wnw249176 0.2 1011133
9 may, sun
sun901:00+3nw249592 0.3 1012207
04:00+2nw2496100 0.0 1013155
07:00+3nnw2596100 0.1 1014375
10:00+5nnw358195 0.1 1015739
13:00+7nnw3567100 0.1 1016972
16:00+8n566559 0.1 10181076
19:00+7nnw3764100 0.1 1020882
22:00+6nw387887 0.0 1021343
10 may, mon
mon1001:00+3n229532 0.0 102224
04:00+2nnw22965 0.0 102331
07:00+5n23815 0.0 1024183
10:00+12ne24465 0.0 10231424
13:00+15nne133385 0.0 10222323
16:00+16nne133099 0.0 10212434
19:00+13e2547100 0.0 1022339
22:00+9ene2762100 0.0 1023196
11 may, tue
tue1101:00+6e247250 0.0 102382
04:00+4ene11785 0.0 102211
07:00+8ne14615 0.0 1022210
10:00+13e35419 0.0 10211907
13:00+15ne3436100 0.0 10202229
16:00+15nne4441100 0.0 10192087
19:00+12ene464961 0.1 10191029
22:00+7ene410694 0.0 1021568
12 may, wed
wed1201:00+4ene27772 0.0 1021284
04:00+2ne24843 0.0 102192
07:00+6ene38584 0.0 1021463
10:00+10e35365 0.0 10211890
13:00+13ene242892 0.0 10202504
16:00+14nne2426100 0.0 10182690
19:00+13ne4534100 0.0 10191146
22:00+7ene275391 0.0 1021161